Home   Weather   Magdeburg   Past weeks

Flag for Germany Past Weather in Magdeburg, Saxony-Anhalt, Germany — Yesterday and Last 2 Weeks

Now
39 °F

Broken clouds.


Feels Like: 30 °F
Forecast: 32 / 45 °F
Wind: 18 mph from Northwest

Location: Braunschweig Wolfsburg

Current Time: Feb 24, 2017 at 12:13:35 pm

Latest Report: Feb 24, 2017 at 11:20 am


Visibility: N/A

Pressure: 29.74 "Hg

Humidity: 81%

Dew Point: 34 °F

Location of MagdeburgLocation

Past Weather in Magdeburg — Graph

°F

Magdeburg Temperature Yesterday

Maximum temperature yesterday: 48 °F (at 12:20 pm)
Minimum temperature yesterday: 43 °F (at 6:50 am)
Average temperature yesterday: 46 °F

High & Low Weather Summary for the Past Weeks

 TemperatureHumidityPressure
High52 °F (Feb 15, 3:20 pm)100% (Feb 11, 9:50 am)30.60 "Hg (Feb 11, 9:50 am)
Low21 °F (Feb 14, 7:20 am)40% (Feb 15, 1:20 pm)29.12 "Hg (Feb 23, 6:50 pm)
Average39 °F84%30.13 "Hg
* Reported Feb 9 11:20 am — Feb 24 11:20 am, Magdeburg, Weather by CustomWeather, © 2017

Note: Actual official high and low records may vary slightly from our data, if they occured in-between our weather recording intervals... More about our weather records

Advertising

Magdeburg Weather History for the Previous 24 Hours

Scroll right to see more
 ConditionsComfort  
Time TempWeatherWind HumidityBarometerVisibility
11:20 am
Fri, Feb 24
39 °FBroken clouds.18 mph81%29.74 "HgN/A
10:50 am39 °FBroken clouds.16 mph93%29.71 "HgN/A
10:20 am37 °FMostly cloudy.17 mph100%29.68 "HgN/A
9:50 am37 °FLight rain. Overcast.16 mph100%29.65 "HgN/A
9:20 am37 °FMostly cloudy.18 mph100%29.62 "HgN/A
8:20 am37 °FLight rain. Mostly cloudy.17 mph100%29.59 "HgN/A
7:20 am36 °FLight rain. Low clouds.18 mph100%29.53 "HgN/A
6:50 am36 °FLight rain. Mostly cloudy.20 mph100%29.50 "HgN/A
6:20 am36 °FLight rain. Mostly cloudy.22 mph100%29.47 "HgN/A
5:50 am37 °FLight rain. Mostly cloudy.24 mph100%29.42 "HgN/A
11:20 pm
Thu, Feb 23
45 °FLight rain. Overcast.26 mph81%29.12 "HgN/A
10:50 pm45 °FLight rain. Overcast.26 mph81%29.12 "HgN/A
10:20 pm45 °FPassing clouds.25 mph81%29.12 "HgN/A
9:50 pm45 °FLight rain. Mostly cloudy.25 mph81%29.12 "HgN/A
9:20 pm45 °FPassing clouds.24 mph81%29.12 "HgN/A
8:50 pm43 °FOvercast.18 mph93%29.12 "HgN/A
8:20 pm45 °FRain. Partly cloudy.25 mph93%29.15 "HgN/A
7:50 pm46 °FPartly cloudy.24 mph76%29.12 "HgN/A
7:20 pm48 °FPartly cloudy.26 mph71%29.12 "HgN/A
6:50 pm48 °FPartly cloudy.18 mph76%29.12 "HgN/A
6:20 pm48 °FPassing clouds.21 mph71%29.15 "HgN/A
5:50 pm48 °FPartly cloudy.23 mph76%29.15 "HgN/A
5:20 pm48 °FBroken clouds.20 mph82%29.15 "HgN/A
4:50 pm48 °FPartly sunny.20 mph87%29.15 "HgN/A
4:20 pm48 °FBroken clouds.18 mph94%29.21 "HgN/A
3:50 pm48 °FLight rain. Broken clouds.17 mph94%29.21 "HgN/A
3:20 pm48 °FPartly sunny.13 mph100%29.24 "HgN/A
2:50 pm48 °FPartly sunny.12 mph100%29.27 "HgN/A
2:20 pm48 °FDrizzle. Mostly cloudy.14 mph100%29.30 "HgN/A
1:50 pm48 °FCloudy.13 mph100%29.33 "HgN/A
1:20 pm48 °FPassing clouds.8 mph100%29.33 "HgN/A
12:50 pm48 °FMostly cloudy.13 mph100%29.36 "HgN/A
12:20 pm48 °FMostly cloudy.10 mph100%29.39 "HgN/A
Weather by CustomWeather, © 2017

See weather overviewHow to use our weather pages